Temp
13 14 15 14 14 14 14 14 14 14 14 14 14 14 14 13 13 13 12 12 12 12 11 11 11 11 11 10 10 10 10 11 11 10 11 12 11 11 11 10 10 10 11
11 13 14 14 15 14 14 14 14 14 14 14 14 14 14 13 12 12 12 12 12 11 11 11 10 10 10 10 10 10 9 10 10 10 8 6 9 10 10 10 10 10 10
11 11 12 13 14 14 14 14 14 14 14 14 14 14 13 13 12 11 11 11 11 10 10 10 10 9 9 9 9 9 8 8 9 9 9 7 7 7 10 10 9 10 10
12 12 12 13 14 15 14 14 14 15 14 14 14 14 13 12 10 10 10 10 10 9 9 9 9 8 8 8 7 7 7 7 6 8 8 7 7 6 7 8 9 9 9
12 11 12 14 15 15 14 14 15 14 14 14 14 14 13 12 10 9 10 9 9 8 8 8 7 7 6 6 6 6 6 6 5 5 4 6 6 6 5 6 7 7 8
12 13 13 13 15 15 14 14 15 15 14 14 14 14 13 11 10 10 10 9 8 8 7 7 6 6 5 5 5 5 5 4 4 4 4 3 4 4 4 5 5 6 6
13 13 11 12 14 14 14 14 15 14 13 13 13 13 12 11 11 10 9 8 7 6 6 5 5 5 4 4 4 4 3 3 3 3 3 3 3 2 3 3 3 4 4
14 13 13 12 13 14 14 14 14 13 12 12 12 11 11 10 10 8 8 7 6 5 5 5 4 4 4 3 3 3 3 2 3 2 2 2 2 2 2 2 2 2 3
13 13 13 13 13 13 14 14 14 12 12 11 11 10 10 9 8 7 7 6 6 5 5 5 4 4 3 3 3 3 3 2 2 2 2 2 2 2 2 1 1 1 1
12 13 13 13 13 14 14 14 13 12 11 10 10 9 8 8 7 7 6 6 5 5 5 4 4 3 3 3 2 2 2 2 2 1 1 1 1 1 1 1 1 1 0
12 12 13 13 12 13 13 12 12 10 9 9 9 8 8 7 7 7 6 5 5 5 4 4 3 3 3 2 2 2 1 1 1 1 0 0 0 0 -0 -0 -0 -0 -1
11 10 10 9 10 11 11 11 10 9 9 9 8 8 7 7 6 6 5 5 5 4 4 3 3 3 2 2 2 1 1 0 0 -0 -0 -1 -1 -1 -2 -2 -2 -2 -2
8 8 8 7 7 8 9 9 9 9 8 8 8 7 7 6 6 6 5 5 4 4 4 3 3 3 2 2 1 1 0 -0 -0 -1 -1 -2 -2 -3 -3 -3 -3 -3 -2
8 7 6 6 6 7 8 8 8 8 8 8 8 7 7 7 6 5 5 4 4 4 3 3 3 2 2 2 1 1 0 -1 -1 -1 -1 -2 -2 -3 -3 -3 -4 -3 -4
7 6 6 6 6 7 8 8 8 8 8 7 7 7 7 6 5 5 5 4 4 3 3 3 3 2 2 2 1 1 -0 -1 -1 -1 -2 -2 -3 -3 -3 -3 -4 -4 -5
7 6 6 6 6 7 7 7 7 7 7 7 7 6 6 5 5 5 4 4 3 3 3 2 2 2 1 1 1 0 -1 -1 -1 -2 -2 -2 -3 -3 -4 -4 -4 -5 -5
7 7 6 6 6 7 7 7 7 7 6 6 6 5 5 5 4 4 3 2 2 1 1 1 1 1 1 1 0 -0 -1 -1 -2 -2 -2 -3 -3 -4 -4 -4 -4 -4 -5
7 6 6 7 7 7 7 6 6 6 5 5 4 4 3 3 3 2 2 1 0 -0 -0 -0 -0 -0 -1 -1 -1 -1 -1 -2 -2 -2 -3 -3 -3 -4 -4 -4 -5 -5 -5
5 6 7 6 6 6 6 5 4 4 4 3 2 2 2 1 1 0 -1 -1 -1 -1 -1 -2 -2 -2 -2 -2 -2 -2 -3 -3 -3 -3 -3 -4 -4 -4 -4 -5 -5 -5 -5
6 5 6 5 5 4 4 4 2 2 1 1 1 1 0 -0 -1 -1 -2 -2 -2 -2 -3 -3 -3 -3 -3 -3 -3 -4 -4 -4 -4 -4 -5 -5 -5 -5 -5 -5 -5 -5 -5
4 4 4 3 3 3 3 1 0 -0 -0 -0 -0 -1 -1 -2 -2 -2 -3 -3 -3 -3 -4 -4 -4 -4 -4 -4 -5 -5 -5 -5 -5 -5 -5 -5 -5 -5 -5 -5 -5 -5 -5
3 3 2 2 1 1 1 -0 -1 -1 -1 -2 -2 -2 -2 -3 -3 -3 -4 -4 -4 -5 -5 -5 -5 -5 -5 -5 -6 -5 -5 -6 -6 -6 -6 -6 -6 -6 -5 -5 -5 -6 -6
1 2 1 0 -0 -1 -1 -2 -2 -2 -2 -3 -3 -3 -4 -4 -4 -4 -5 -5 -6 -6 -6 -6 -6 -6 -6 -6 -6 -6 -6 -6 -6 -6 -6 -6 -6 -6 -6 -6 -6 -6 -7
1 0 -0 -1 -2 -2 -3 -3 -3 -3 -3 -4 -4 -4 -5 -5 -5 -6 -6 -6 -6 -7 -7 -7 -7 -7 -7 -7 -7 -7 -7 -7 -7 -7 -7 -8 -7 -7 -7 -7 -7 -7 -7
-1 -1 -2 -3 -3 -3 -4 -4 -4 -4 -5 -5 -5 -6 -6 -6 -7 -7 -7 -7 -7 -8 -7 -7 -7 -8 -8 -8 -7 -8 -8 -8 -8 -8 -8 -8 -8 -8 -8 -7 -8 -8 -7
-2 -2 -3 -3 -4 -4 -5 -5 -5 -5 -6 -7 -7 -7 -7 -8 -8 -8 -8 -8 -8 -8 -8 -8 -8 -8 -8 -8 -8 -8 -9 -9 -9 -9 -9 -9 -9 -9 -9 -8 -8 -8 -8
Height
880 884 886 889 891 892 894 895 895 896 898 899 899 900 900 900 900 900 899 897 895 894 892 890 887 884 882 880 877 874 872 869 866 862 858 858 856 856 855 854 853 850 848
879 881 883 886 887 890 892 894 895 896 897 898 899 900 900 900 900 899 898 896 895 894 892 890 887 885 882 880 877 875 871 870 868 865 863 861 857 854 855 854 853 852 850
874 876 879 882 885 887 890 893 895 895 896 897 898 899 900 900 901 899 898 896 895 894 892 891 889 886 884 881 878 875 873 870 868 867 867 865 863 857 852 852 852 851 850
870 873 875 878 880 883 888 891 893 894 895 896 897 898 898 898 899 899 898 897 896 895 893 892 890 889 887 884 881 878 875 872 870 866 866 866 865 862 853 850 850 849 849
861 865 868 870 876 881 885 888 891 893 894 895 895 896 896 897 898 899 897 896 896 895 894 892 891 889 888 886 882 879 877 875 873 871 868 865 862 863 862 853 849 847 846
852 858 863 869 873 878 882 885 888 890 892 893 894 895 895 896 897 897 895 896 896 895 894 893 891 889 887 885 884 882 879 877 875 873 871 869 867 865 863 859 852 848 843
844 850 855 860 865 871 876 881 884 887 889 890 890 891 893 894 894 895 895 896 896 895 894 893 891 888 887 885 883 882 881 879 876 874 872 870 868 867 864 860 856 849 843
836 840 845 851 858 864 870 876 880 884 887 888 888 889 892 893 893 894 895 895 896 895 894 892 889 887 885 884 882 881 880 878 877 874 872 870 868 866 863 861 857 849 844
831 833 838 843 850 858 865 871 877 881 883 885 887 889 891 892 894 895 895 895 896 895 893 890 888 886 885 883 882 880 877 876 874 872 871 869 866 864 862 860 857 854 846
832 833 837 841 846 853 860 867 874 879 883 886 888 890 891 893 893 894 895 894 894 893 892 890 887 885 883 882 880 878 876 874 873 871 869 867 864 861 858 856 853 851 847
830 832 837 842 846 851 859 867 873 878 882 886 888 891 892 893 893 894 894 894 894 891 889 888 886 883 882 881 879 876 874 872 871 869 866 864 861 858 855 852 849 846 843
832 833 837 841 846 852 859 865 873 878 883 887 889 890 891 893 893 893 893 893 891 889 887 886 883 881 879 877 874 873 870 868 866 864 862 860 858 854 851 848 844 840 837
838 840 843 846 849 854 860 868 874 879 884 888 889 890 891 892 892 891 891 890 889 887 885 883 880 877 875 873 871 869 867 865 863 861 859 856 853 849 846 843 840 837 833
843 846 849 851 855 859 865 871 877 882 885 888 888 889 890 890 890 889 888 888 886 884 881 879 876 874 871 869 867 865 862 860 858 857 854 851 848 844 841 839 836 833 829
848 852 855 858 861 866 871 875 880 884 886 888 889 889 889 888 888 888 886 885 883 880 877 874 871 869 866 864 862 859 857 855 853 851 849 846 843 840 837 834 831 828 824
851 855 859 863 867 871 875 879 883 886 888 888 888 888 888 888 888 886 884 882 880 876 873 870 866 864 862 860 858 855 851 850 847 845 843 840 837 834 831 828 824 823 820
856 861 865 869 873 876 879 882 885 887 889 889 889 888 888 888 886 884 882 879 876 872 869 865 863 860 857 855 853 849 846 844 841 839 835 833 830 828 825 821 817 814 812
862 867 869 872 876 879 882 885 887 888 889 889 890 889 888 886 884 881 879 875 872 869 866 863 860 856 853 850 847 844 841 838 835 832 829 826 823 820 818 814 810 806 804
865 871 875 879 882 884 887 888 889 890 891 891 891 890 888 885 882 879 877 874 870 867 864 861 857 853 849 846 842 839 834 831 828 825 822 820 816 814 811 807 803 799 795
870 874 879 882 885 888 889 890 892 892 893 893 891 889 886 884 881 878 875 872 869 864 860 855 852 848 843 840 837 834 830 826 822 819 816 814 811 807 804 801 797 793 789
876 879 882 886 889 891 892 893 894 894 894 892 890 888 885 883 880 877 873 870 866 861 856 851 847 844 841 837 833 830 826 822 817 813 810 807 804 801 797 794 792 788 784
880 883 886 889 892 893 894 895 895 894 893 892 890 887 885 882 879 876 872 868 863 858 853 848 842 839 836 833 829 825 822 818 813 808 804 801 797 794 791 788 785 782 778
885 888 889 892 895 897 897 897 897 895 894 892 889 887 884 881 877 873 869 865 860 855 849 844 839 835 831 827 825 820 816 812 808 804 799 795 792 788 784 782 779 776 773
890 892 893 896 899 900 899 899 898 896 894 891 889 885 882 879 875 871 867 862 858 852 847 842 837 832 827 825 820 816 811 807 803 798 793 790 787 783 780 776 773 770 767
894 895 897 899 901 901 900 899 898 896 893 891 888 884 880 876 872 869 865 861 857 853 847 841 835 831 825 822 817 812 807 803 798 793 788 784 780 777 774 770 768 767 764
897 898 899 901 902 902 901 900 898 896 893 890 886 883 879 875 870 865 860 859 855 850 846 841 836 829 825 819 814 809 804 798 793 787 784 780 777 774 771 767 765 762 760
Wind_Speed
16 19 17 14 13 11 10 8 9 9 11 9 8 6 4 4 5 7 9 8 9 10 12 14 15 17 18 18 20 20 20 23 26 23 19 6 7 13 11 23 26 27 26
7 20 20 18 17 15 12 12 10 10 8 9 10 7 5 2 5 8 8 8 6 8 10 13 15 16 15 16 17 18 17 13 17 15 5 4 7 20 12 19 25 25 26
12 13 23 23 21 19 16 14 12 12 8 10 11 8 5 3 7 11 12 14 12 11 12 14 16 17 18 19 19 17 15 13 14 13 4 2 2 11 4 14 21 21 26
8 14 21 27 26 25 20 15 15 12 10 13 11 9 6 6 9 10 12 13 12 12 13 14 16 16 17 18 18 18 18 15 15 11 5 8 10 3 4 3 21 21 24
14 15 25 34 31 26 25 20 16 15 14 13 10 9 6 8 10 9 8 10 11 13 15 17 17 18 18 18 18 17 16 16 17 17 13 9 12 7 4 6 14 18 19
15 21 25 29 32 29 27 24 20 18 16 14 11 8 7 9 10 6 6 7 9 12 15 16 17 17 19 20 18 15 16 16 16 15 15 13 6 8 7 6 16 13 13
16 15 21 27 34 33 30 28 25 23 18 15 12 10 10 11 7 5 6 6 9 13 14 15 16 17 16 16 15 15 14 18 17 16 15 13 13 10 11 10 12 9 14
15 16 27 30 32 37 33 32 29 24 16 14 13 13 11 9 6 6 6 8 9 11 11 13 15 15 14 14 14 13 11 11 15 13 11 12 12 12 14 10 12 9 9
13 17 25 30 30 35 36 33 28 21 16 18 17 14 11 8 7 7 6 8 7 9 11 14 13 12 11 11 13 11 9 8 11 11 9 12 13 14 15 16 14 10 6
7 10 19 24 27 33 35 29 22 19 19 18 15 12 9 7 6 5 5 6 6 9 12 10 8 10 7 11 13 7 8 9 11 12 13 14 15 16 16 17 17 17 16
7 6 12 18 22 29 28 23 20 23 21 17 13 10 7 5 5 3 3 3 5 8 10 7 6 8 7 10 11 8 8 9 11 13 15 16 17 18 20 21 21 24 22
3 7 15 21 24 26 26 25 25 23 18 13 10 7 5 6 4 2 1 2 7 11 10 7 9 9 8 10 9 10 10 10 12 14 16 17 20 23 24 23 24 23 24
7 8 13 15 21 26 29 29 24 20 14 10 6 5 5 5 3 3 3 6 10 13 12 11 12 12 11 12 10 13 12 11 14 17 19 21 23 21 21 23 22 20 18
6 7 10 15 21 27 31 26 21 15 11 7 4 4 4 4 6 6 6 9 12 15 14 15 16 15 15 15 14 16 15 12 14 17 18 22 21 21 22 20 15 21 25
8 8 9 16 22 28 25 21 17 12 7 4 2 2 4 7 8 7 11 14 15 17 18 19 20 19 18 18 17 20 17 14 15 18 20 22 21 20 21 17 23 23 19
9 10 16 20 20 24 21 17 13 9 5 2 1 4 6 7 8 13 16 17 19 21 22 22 22 21 20 19 21 25 20 16 17 20 22 22 23 22 20 23 25 23 20
11 11 16 18 22 20 16 13 9 6 3 4 6 6 5 9 14 16 18 21 23 23 23 21 19 21 23 20 29 27 22 21 19 21 23 25 24 22 24 25 26 27 25
11 14 19 23 19 16 13 11 8 8 9 10 8 7 9 12 14 16 17 17 16 17 20 22 23 24 24 25 23 23 25 26 23 25 25 24 26 25 24 27 26 27 27
18 22 22 19 16 14 13 15 15 14 13 12 12 12 13 15 16 15 15 17 21 23 23 23 24 24 26 25 23 20 20 21 25 29 25 24 25 27 25 27 27 27 29
24 24 22 21 20 17 15 16 15 14 14 13 13 14 14 14 13 17 21 22 23 23 24 26 26 26 26 24 24 24 23 22 23 23 22 23 24 26 27 28 25 22 29
27 26 26 24 19 15 14 16 14 16 14 14 14 13 12 16 18 20 19 21 24 25 26 27 28 27 25 25 26 24 23 22 23 22 22 22 25 25 26 23 23 24 28
25 25 26 23 19 16 15 15 16 14 14 13 13 14 17 20 20 19 23 25 25 26 25 25 25 22 22 23 23 23 24 26 26 25 25 27 25 23 26 27 26 27 25
23 22 22 21 18 16 16 15 14 13 13 16 17 18 19 22 21 22 25 24 23 23 24 23 23 24 25 24 22 27 26 25 24 25 26 25 26 28 29 27 25 25 20
20 19 19 18 16 14 15 15 14 15 16 18 19 20 21 21 22 21 20 21 22 24 24 24 24 25 20 23 25 25 23 22 23 24 24 24 27 28 26 26 25 19 12
19 18 17 15 14 13 15 15 16 17 18 17 17 18 20 19 22 20 21 22 22 23 26 25 22 26 26 25 29 28 28 29 30 33 28 24 24 25 27 24 12 18 17
17 17 16 15 14 14 15 16 17 20 20 18 18 19 20 21 21 22 23 19 20 22 21 24 28 26 25 27 28 30 31 30 28 24 19 18 20 20 18 16 18 19 19
Wind_Direction
214 202 196 191 181 185 191 178 166 168 175 174 168 158 119 77 50 25 9 1 12 12 13 11 9 13 12 11 12 14 15 25 18 12 6 339 341 7 18 13 13 17 15
194 204 203 198 195 196 197 195 187 183 191 207 190 175 154 87 55 38 17 17 6 3 3 5 9 9 9 5 4 2 360 358 14 12 2 352 339 338 342 353 6 7 7
199 200 203 203 200 204 203 198 194 187 191 186 178 177 173 103 62 59 63 61 55 47 40 40 36 31 27 29 22 14 5 349 345 356 3 351 283 321 335 330 349 349 350
203 202 199 207 205 207 206 200 193 192 188 173 177 182 153 107 92 95 82 70 59 53 43 35 27 24 22 21 22 20 23 17 8 357 339 326 310 311 320 315 328 333 335
195 195 201 207 207 206 206 202 197 199 195 194 186 169 147 128 131 117 86 61 50 41 35 29 25 23 21 19 17 16 23 27 33 32 9 353 350 21 301 309 325 328 332
199 202 204 205 208 210 208 204 202 202 201 197 190 195 194 160 144 121 81 63 48 38 32 25 23 22 19 18 22 24 22 24 22 23 27 31 12 349 352 316 325 322 330
193 193 185 194 206 207 208 206 206 208 206 206 206 206 190 165 151 115 85 61 43 38 36 29 29 26 23 21 20 21 22 26 22 18 20 22 21 9 352 329 327 314 316
194 194 193 195 200 205 207 206 209 212 210 207 191 168 161 152 133 107 88 72 54 47 38 28 22 23 25 26 21 16 13 9 13 10 12 10 7 2 360 344 331 322 312
196 198 195 194 192 199 206 205 208 211 205 181 167 155 149 139 121 103 83 66 52 37 20 11 11 19 24 18 3 359 8 5 13 13 1 353 348 342 337 334 324 309 309
203 199 197 192 189 195 202 202 202 201 178 165 156 147 140 126 110 102 76 53 36 16 2 358 7 11 15 4 1 12 11 2 1 359 348 340 334 328 324 321 317 305 291
201 186 182 182 177 186 190 184 179 165 157 154 148 143 131 128 126 103 84 46 9 358 345 335 341 349 347 349 355 346 345 349 346 343 337 327 322 318 316 314 312 309 302
142 132 139 145 150 155 158 159 158 151 147 146 144 136 137 154 160 159 151 327 338 344 323 301 317 319 310 325 327 325 320 328 333 334 327 321 319 318 316 316 312 305 302
91 101 113 120 127 136 144 145 142 137 138 137 134 140 164 186 212 251 268 308 328 334 315 285 295 290 294 306 303 308 306 317 327 329 323 321 322 317 316 316 308 307 310
95 99 99 108 116 124 133 131 128 129 131 135 144 166 202 238 254 260 285 310 316 322 306 280 288 280 283 293 295 304 291 301 315 321 318 317 317 311 315 311 310 308 304
107 107 110 113 113 120 123 122 120 122 126 136 158 231 282 249 251 278 302 307 303 307 304 292 287 279 277 290 291 297 280 288 305 314 312 315 313 302 307 296 310 310 301
121 117 118 113 114 122 119 116 117 116 108 99 306 291 265 255 287 304 304 294 299 301 300 295 292 281 285 288 305 297 277 285 298 309 309 308 308 306 306 298 304 303 297
118 116 110 110 119 120 118 114 112 105 60 5 345 335 307 299 304 306 301 305 311 314 314 313 310 305 303 298 312 300 277 282 293 308 307 305 305 301 304 305 307 305 305
107 102 112 120 119 114 106 103 90 67 52 46 30 353 330 324 322 326 328 334 345 346 339 331 325 320 313 309 314 311 299 295 290 307 309 307 305 306 307 302 297 297 300
107 114 115 106 98 92 99 90 72 62 52 39 24 7 351 341 337 343 349 345 342 337 334 332 329 326 319 320 322 320 319 309 300 304 308 307 304 307 301 299 292 293 298
103 103 103 99 93 89 86 77 67 54 36 15 1 352 347 348 358 351 346 342 338 333 329 327 325 322 319 321 323 327 321 308 304 302 299 300 302 304 300 294 294 297 299
101 104 96 86 83 81 76 69 50 32 11 359 355 356 5 357 350 342 342 336 333 330 331 329 326 322 321 321 325 324 320 314 308 305 303 301 303 302 300 304 303 296 301
95 97 91 85 81 69 56 46 31 13 6 8 12 4 353 350 345 339 336 334 332 330 324 319 314 316 318 317 321 322 319 318 313 308 305 309 310 308 306 303 301 306 303
95 95 93 86 67 52 42 40 28 24 17 4 360 356 348 346 344 334 332 329 326 320 316 317 318 319 319 315 329 328 320 316 312 312 310 305 308 309 308 305 304 306 302
93 94 87 78 64 51 51 46 30 16 7 360 354 348 344 337 334 329 327 321 322 321 321 322 320 314 327 330 325 321 319 321 318 319 321 318 315 313 311 310 312 306 300
92 87 85 79 70 62 51 36 23 13 5 358 350 342 336 333 329 326 328 328 326 326 323 322 331 333 325 323 323 326 328 324 319 318 314 309 311 314 318 319 322 325 316
94 87 83 80 75 56 43 29 16 6 359 354 347 339 335 332 332 333 332 335 331 330 330 325 324 325 323 326 327 325 323 324 325 326 319 313 314 312 312 308 317 316 312